Regional Weather Roundup
Issued by NWS

Home | Current Version | Previous Version | Text Only | Print | Product List | Glossary On
Versions: 1 2 3 4 5 6 7 8 9 10 11 12 13 14 15 16 17 18 19 20 21 22 23 24 25 26 27 28 29 30 31 32 33 34 35 36 37 38 39 40 41 42 43 44 45 46 47 48 49 50
000
ASCA44 KEWX 051320
RWRMX

LATIN AMERICA AND CARIBBEAN REGIONAL WEATHER ROUNDUP
NATIONAL WEATHER SERVICE AUSTIN/SAN ANTONIO TX
800 AM CDT TUE MAY 05 2015

NOTE: "FAIR" INDICATED FEW OR NO CLOUDS BELOW 12,000 FEET WITH NO
SIGNIFICANT WEATHER AND/OR OBSTRUCTIONS TO VISIBILITY.

BAJA CALIFORNIA

CITY           SKY/WX    TMP DP  RH WIND       PRES   REMARKS
LORETO         MOCLDY    68  66  94 NW12      29.88
TIJUANA        CLOUDY    59  46  63 CALM      30.01S

NORTHWESTERN MEXICO

CITY           SKY/WX    TMP DP  RH WIND       PRES   REMARKS
DURANGO        MOCLDY    55  41  58 S2        30.13
HERMOSILLO     CLEAR     63  54  72 CALM      29.92R
CD. JUAREZ     CLEAR     61  45  55 NW17      29.90
LOS MOCHIS     MOCLDY    63  54  72 NE5       29.90

NORTHEASTERN MEXICO

CITY           SKY/WX    TMP DP  RH WIND       PRES   REMARKS
CHIHUAHUA      PTCLDY    55  32  41 W7        30.03
MATAMOROS      PTSUNNY   75  73  94 E14       29.93
MONCLOVA       PTSUNNY   70  59  68 W6        29.86
MONTERREY      DRZL/FOG  70  68  94 E12       29.87R VSB 1
NUEVO LAREDO   PTSUNNY   73  68  83 SE12      29.89
PIEDRAS NEGRAS PTSUNNY   72  63  73 SE9       29.88
SALTILLO       FOG       63  57  82 N7        30.04R VSB 1
TORREON        MOCLDY    72  50  46 W5        29.95R
CD. VICTORIA   PTSUNNY   73  68  83 S13       29.90

WESTERN MEXICO

CITY           SKY/WX    TMP DP  RH WIND       PRES   REMARKS
AGUASCALIENTES CLEAR     55  41  58 S6        30.21
COLIMA         CLEAR     73  55  53 CALM      29.97R
DEL BAJIO      CLEAR     52  39  62 N5        30.26R
GUADALAJARA    CLEAR     54  45  71 CALM      30.15
MANZANILLO     CLEAR     70  68  94 NE6       29.81R
MAZATLAN       MOCLDY    63  59  88 N6        29.86R
P. VALLARTA    MOCLDY    68  66  94 CALM      29.86R
URUAPAN        CLEAR     59  54  82 CALM      30.15R
ZACATECAS      MOCLDY    57  39  51 S10       30.21R

CENTRAL MEXICO

CITY           SKY/WX    TMP DP  RH WIND       PRES   REMARKS
CUERNAVACA     SUNNY     68  54  60 CALM      30.12S
MEXICO CITY    SUNNY     59  50  72 E3        30.31R
MORELIA        CLEAR     54  48  82 CALM      30.22
POZA RICA      CLOUDY    75  73  94 CALM      29.95R FOG
PUEBLA         MOSUNNY   50  48  93 NW7       30.32R HAZE    WCI  47
QUERETARO      FOG       54  54 100 CALM      30.27R VSB 1/8
S. LUIS POTOSI MOSUNNY   54  54 100 CALM      30.18R FOG
TAMPICO        MOSUNNY   77  73  88 SE6       29.91R
TOLUCA         SUNNY     46  43  87 CALM      30.39R

SOUTHERN MEXICO

CITY           SKY/WX    TMP DP  RH WIND       PRES   REMARKS
ACAPULCO       SUNNY     79  75  89 CALM      29.89R
B. DE HUATULCO CLOUDY    75  70  83 CALM      29.90
OAXACA         PTSUNNY   63  59  88 CALM      30.20R
P. ESCONDIDO   MOSUNNY   77  72  83 E15       29.99S
VERACRUZ       PTSUNNY   73  72  94 W3        29.90R FOG
ZIHUATANEJO    CLEAR     72  66  83 CALM      29.85S

YUCATAN PENINSULA

CITY           SKY/WX    TMP DP  RH WIND       PRES   REMARKS
CAMPECHE       MOSUNNY   77  72  83 CALM      29.92R
CANCUN         MOSUNNY   81  72  74 E9        29.98R
CHETUMAL       MOSUNNY   77  70  78 CALM      29.95
CD. DEL CARMEN SUNNY     81  72  74 SE18      29.91
COZUMEL        MOSUNNY   75  72  88 CALM      29.98R
MERIDA         PTSUNNY   75  70  83 E6        29.97R
MINATITLAN     SUNNY     73  66  78 CALM      29.86
TAPACHULA      MOSUNNY   81  75  83 CALM      29.90R
TUX. GUTIERREZ SUNNY     73  66  78 CALM      29.98R
VILLAHERMOSA   PTSUNNY   77  77 100 SW6       29.91R FOG

CENTRAL AMERICA

CITY           SKY/WX    TMP DP  RH WIND       PRES   REMARKS
BELIZE CITY    MOSUNNY   81  75  83 CALM      29.95R
MANAGUA        MOSUNNY   81  70  69 E7        29.89S

CARIBBEAN

CITY           SKY/WX    TMP DP  RH WIND       PRES   REMARKS
ARUBA          MOSUNNY   84  73  70 E30G45    29.92S HX  91
CURACAO        MOSUNNY   84  70  61 SE23G36   30.00S
KINGSTON       MOSUNNY   84  73  70 SE21      29.97S HX  91
NASSAU         PTSUNNY   73  70  88 NE6       30.09S
SAN JUAN       MOSUNNY   84  72  65 E16G24    30.15R
SANTO DOMINGO  MOSUNNY   82  75  78 SE9       30.09S
ST. CROIX      MOSUNNY   84  72  65 E17       30.15R
ST. KITTS      MOSUNNY   84  70  61 NE17      30.12S
ST. THOMAS     MOSUNNY   88  70  55 E17       30.14R HX  92

$$



USA.gov is the U.S. government's official web portal to all federal, state and local government web resources and services.